STARLINK-35302, 65845

Orbit data source: Space-Track

STARLINK-35302, 65845 is a payload satellite owned by SpaceX/Seattle (US) in LEO that was launched on Mon, 29 Sep 2025 UTC via an FALCON 9 launch vehicle from the Air Force Western Test Range (AFWTR). Payload-class satellites include a variety of spacecraft equipped with specific instruments for various scientific and technological missions. These include communications satellites like Starlink; space stations such as the ISS; scientific satellites like the Hubble; Earth observation satellites from companies like Planet Labs, Umbra, and HawkEye 360; GPS; miniature CubeSats for education and research; and military/defense satellites.

Loading next visibility...
Identifier
65845, 2025-221Y
Orbit
LEO
Country
Flag of USUS
Related business
Manufacturer
SpaceX/Seattle
Mission
Operational Commercial Communications
Bus & Motor
STARLINK V2MO, Unknown motor
Mass
575 kg wet, ~530 kg dry
Launch date (UTC)
2025-09-29 (2 months ago)
Launch vehicle
FALCON 9
Launch site
Air Force Western Test Range (AFWTR)
Object type
Payload
Rocket body
Debris
Shape & HBR
Box + 2 Pan, 17.7 m
Radar Cross Section
36.964 m²

Expand to show TLE details & history
Last TLE update: 11 hours ago

TLE from 11 hours ago
0 STARLINK-35302
1 65845U 25221Y   25340.87579137  .00033088  00000-0  11242-2 0  9995
2 65845  53.1585 159.4142 0001044  85.1670 274.9450 15.30204277 10529
Epoch: 2025-12-06T21:01Z
TLE epoch observation values (Epoch: 2025-12-06T21:01:08.374Z)
Latitude
-0.00001°
Longitude
128.23205°
Altitude
476.04 km
Speed
7.629 km/s
True Right ascension
10h 37m 39s
True Declination
0° 00' 00"
Sunlit
Object was in daylight at epoch
Visualization orbit readout
Latitude
Unknown
Longitude
Unknown
Altitude
Unknown
Speed
Unknown
Apparent Right ascension
Unknown
Apparent Declination
Unknown
Sunlit
N/A
Visualization observer readout
Local Sidereal Time
06:13:31
Azimuth
Unknown
Elevation
Unknown
Doppler factor
Unknown
Orbital elements
Apogee altitude
476.174 km
Perigee altitude
474.743 km
Semi-major axis
6,853.596 km
Eccentricity
0.0001
Inclination
53.1585°
RAAN
159.4142°
Arg. of periapsis
85.167°
True anomaly
274.93308°
Mean anomaly
274.945°
Eccentric anomaly
274.93904°
Mean motion
3.8253 °/min
Orbital period
94.11 mins
BSTAR
0.0011242
Loading maneuver chart data...
Computing Atmospheric mass density...
Loading historical data...
Loading historical data...
Loading historical data...
Loading historical data...
Loading historical data...
Loading historical data...
Loading historical data...

Documentation

Showing up to 5 results
|